VKG1226 ENGM-ESSA

Flight info

Callsign VKG1226
Flight time 0h 42m
Altitude 23000
Route MASEV Z183 LEGPO DCT ELTOK
Aircraft A321/M-SDE3FGHIRWY/LB1

Departure

Time 2026-05-05 15:31
Airport Oslo-Gardermoen International Airport (ENGM)

Arrival

Time 2026-05-05 16:13
Airport Stockholm-Arlanda Airport (ESSA)
Time Latitude Longitude Altitude Speed Heading
2026-05-05 15:07 60.19544 11.09578 679 ft 0 kts 196°
2026-05-05 15:14 60.19560 11.09588 682 ft 4 kts 197°
2026-05-05 15:14 60.19586 11.09605 679 ft 4 kts 200°
2026-05-05 15:14 60.19611 11.09625 679 ft 4 kts 207°
2026-05-05 15:15 60.19632 11.09654 677 ft 4 kts 235°
2026-05-05 15:15 60.19638 11.09686 678 ft 1 kts 291°
2026-05-05 15:19 60.19638 11.09684 678 ft 1 kts 291°
2026-05-05 15:20 60.19651 11.09607 681 ft 9 kts 287°
2026-05-05 15:20 60.19673 11.09454 683 ft 14 kts 285°
2026-05-05 15:20 60.19707 11.09230 683 ft 19 kts 286°
2026-05-05 15:20 60.19746 11.08985 682 ft 15 kts 288°
2026-05-05 15:21 60.19779 11.08725 678 ft 15 kts 273°
2026-05-05 15:21 60.19746 11.08661 679 ft 11 kts 216°
2026-05-05 15:21 60.19632 11.08590 678 ft 16 kts 195°
2026-05-05 15:21 60.19515 11.08520 678 ft 20 kts 195°
2026-05-05 15:22 60.19419 11.08465 676 ft 23 kts 195°
2026-05-05 15:22 60.19190 11.08333 674 ft 29 kts 197°
2026-05-05 15:22 60.19054 11.08254 673 ft 31 kts 195°
2026-05-05 15:22 60.18838 11.08131 672 ft 32 kts 195°
2026-05-05 15:23 60.18646 11.08021 671 ft 23 kts 196°
2026-05-05 15:23 60.18497 11.07935 669 ft 22 kts 196°
2026-05-05 15:23 60.18384 11.07870 668 ft 9 kts 196°
2026-05-05 15:23 60.18347 11.07786 667 ft 9 kts 259°
2026-05-05 15:24 60.18378 11.07660 664 ft 12 kts 320°
2026-05-05 15:24 60.18412 11.07611 664 ft 0 kts 324°
2026-05-05 15:28 60.18413 11.07609 664 ft 2 kts 324°
2026-05-05 15:29 60.18488 11.07502 666 ft 23 kts 323°
2026-05-05 15:29 60.18597 11.07433 666 ft 9 kts
2026-05-05 15:29 60.18619 11.07443 666 ft 0 kts 16°
2026-05-05 15:30 60.18647 11.07460 666 ft 22 kts 16°
2026-05-05 15:30 60.19052 11.07688 670 ft 94 kts 16°
2026-05-05 15:30 60.19858 11.08148 675 ft 144 kts 16°
2026-05-05 15:30 60.20919 11.08770 851 ft 169 kts 12°
2026-05-05 15:31 60.22071 11.09478 1438 ft 171 kts 12°
2026-05-05 15:31 60.23202 11.10090 2136 ft 171 kts 10°
2026-05-05 15:31 60.24370 11.10852 2666 ft 181 kts 14°
2026-05-05 15:31 60.25611 11.11550 2905 ft 192 kts
2026-05-05 15:32 60.26980 11.11243 3064 ft 206 kts 346°
2026-05-05 15:32 60.28468 11.10726 3230 ft 230 kts 348°
2026-05-05 15:32 60.30141 11.11023 3651 ft 257 kts 21°
2026-05-05 15:32 60.31498 11.13425 4467 ft 270 kts 58°
2026-05-05 15:33 60.31977 11.17117 5308 ft 280 kts 89°
2026-05-05 15:33 60.31917 11.21063 6165 ft 283 kts 83°
2026-05-05 15:33 60.32470 11.24855 6771 ft 284 kts 59°
2026-05-05 15:33 60.33392 11.28364 6967 ft 282 kts 59°
2026-05-05 15:34 60.34305 11.31911 7630 ft 286 kts 59°
2026-05-05 15:34 60.35214 11.35505 8505 ft 288 kts 60°
2026-05-05 15:34 60.36126 11.39142 9322 ft 292 kts 60°
2026-05-05 15:34 60.37064 11.42886 10080 ft 298 kts 60°
2026-05-05 15:35 60.38039 11.46763 10341 ft 321 kts 60°
2026-05-05 15:35 60.39078 11.50871 10569 ft 342 kts 61°
2026-05-05 15:35 60.40102 11.55304 11111 ft 353 kts 69°
2026-05-05 15:35 60.40683 11.60159 11827 ft 360 kts 82°
2026-05-05 15:36 60.40726 11.65242 12565 ft 365 kts 95°
2026-05-05 15:36 60.40204 11.70302 13300 ft 370 kts 109°
2026-05-05 15:36 60.39140 11.75050 13985 ft 374 kts 119°
2026-05-05 15:36 60.37889 11.79698 14581 ft 380 kts 120°
2026-05-05 15:37 60.36619 11.84427 15167 ft 386 kts 120°
2026-05-05 15:37 60.35331 11.89225 15727 ft 392 kts 120°
2026-05-05 15:37 60.34018 11.94104 16323 ft 398 kts 121°
2026-05-05 15:37 60.32683 11.99036 16868 ft 404 kts 121°
2026-05-05 15:38 60.31320 12.04061 17445 ft 410 kts 121°
2026-05-05 15:38 60.29942 12.09142 17995 ft 416 kts 122°
2026-05-05 15:38 60.28540 12.14298 18472 ft 423 kts 123°
2026-05-05 15:38 60.27112 12.19530 18887 ft 430 kts 123°
2026-05-05 15:39 60.25658 12.24839 19318 ft 436 kts 123°
2026-05-05 15:39 60.24184 12.30208 19740 ft 441 kts 123°
2026-05-05 15:39 60.22688 12.35647 20135 ft 447 kts 124°
2026-05-05 15:39 60.21169 12.41158 20573 ft 452 kts 124°
2026-05-05 15:40 60.19638 12.46722 20990 ft 459 kts 123°
2026-05-05 15:40 60.18331 12.52654 21389 ft 470 kts 113°
2026-05-05 15:40 60.17474 12.59057 21790 ft 481 kts 103°
2026-05-05 15:40 60.17018 12.65768 22156 ft 488 kts 99°
2026-05-05 15:41 60.16598 12.72566 22540 ft 493 kts 99°
2026-05-05 15:41 60.16162 12.79424 22820 ft 498 kts 100°
2026-05-05 15:41 60.15718 12.86330 22869 ft 499 kts 100°
2026-05-05 15:41 60.15270 12.93226 22864 ft 498 kts 100°
2026-05-05 15:42 60.14820 13.00118 22864 ft 498 kts 100°
2026-05-05 15:42 60.14366 13.06999 22865 ft 498 kts 100°
2026-05-05 15:42 60.13906 13.13881 22870 ft 498 kts 100°
2026-05-05 15:42 60.13446 13.20759 22869 ft 498 kts 100°
2026-05-05 15:43 60.12987 13.27645 22867 ft 498 kts 100°
2026-05-05 15:43 60.12527 13.34523 22868 ft 498 kts 100°
2026-05-05 15:43 60.12059 13.41419 22825 ft 498 kts 101°
2026-05-05 15:43 60.11583 13.48311 22848 ft 501 kts 102°
2026-05-05 15:44 60.11099 13.55251 22852 ft 503 kts 102°
2026-05-05 15:44 60.10610 13.62196 22858 ft 504 kts 102°
2026-05-05 15:44 60.10120 13.69161 22861 ft 504 kts 102°
2026-05-05 15:44 60.09637 13.76036 22862 ft 490 kts 102°
2026-05-05 15:45 60.09169 13.82662 22867 ft 472 kts 102°
2026-05-05 15:45 60.08712 13.89063 22866 ft 456 kts 102°
2026-05-05 15:45 60.08266 13.95217 22870 ft 449 kts 103°
2026-05-05 15:45 60.07805 14.01457 22871 ft 448 kts 103°
2026-05-05 15:46 60.07351 14.07549 22877 ft 447 kts 103°
2026-05-05 15:46 60.06895 14.13695 22882 ft 447 kts 103°
2026-05-05 15:46 60.06435 14.19870 22880 ft 447 kts 103°
2026-05-05 15:46 60.05971 14.26018 22879 ft 447 kts 103°
2026-05-05 15:47 60.05502 14.32169 22875 ft 447 kts 104°
2026-05-05 15:47 60.05185 14.36312 22874 ft 447 kts 103°
2026-05-05 15:47 60.04560 14.44461 22876 ft 447 kts 104°
2026-05-05 15:47 60.04241 14.50655 22861 ft 450 kts 90°
2026-05-05 15:48 60.04736 14.56816 22876 ft 449 kts 68°
2026-05-05 15:48 60.05980 14.62481 22865 ft 443 kts 57°
2026-05-05 15:48 60.07395 14.67962 22854 ft 443 kts 57°
2026-05-05 15:48 60.08828 14.73432 22855 ft 444 kts 57°
2026-05-05 15:49 60.10262 14.78909 22814 ft 444 kts 57°
2026-05-05 15:49 60.11711 14.84373 22844 ft 445 kts 57°
2026-05-05 15:49 60.13173 14.89850 22859 ft 446 kts 57°
2026-05-05 15:49 60.14513 14.95478 22849 ft 450 kts 70°
2026-05-05 15:50 60.15088 15.01641 22855 ft 449 kts 92°
2026-05-05 15:50 60.14817 15.07805 22856 ft 441 kts 105°
2026-05-05 15:50 60.14275 15.13854 22844 ft 441 kts 107°
2026-05-05 15:50 60.13705 15.19900 22844 ft 441 kts 107°
2026-05-05 15:51 60.13129 15.25947 22842 ft 441 kts 107°
2026-05-05 15:51 60.12550 15.31986 22843 ft 441 kts 107°
2026-05-05 15:51 60.11968 15.38037 22837 ft 441 kts 107°
2026-05-05 15:51 60.11386 15.44074 22842 ft 442 kts 107°
2026-05-05 15:52 60.10803 15.50123 22815 ft 440 kts 107°
2026-05-05 15:52 60.10215 15.56125 22649 ft 435 kts 111°
2026-05-05 15:52 60.09282 15.61693 22238 ft 424 kts 119°
2026-05-05 15:52 60.08253 15.67186 21841 ft 420 kts 119°
2026-05-05 15:53 60.07226 15.72640 21454 ft 416 kts 118°
2026-05-05 15:53 60.06203 15.78038 21133 ft 413 kts 118°
2026-05-05 15:53 60.05158 15.83491 20898 ft 427 kts 118°
2026-05-05 15:53 60.04077 15.89081 20629 ft 432 kts 118°
2026-05-05 15:54 60.02996 15.94681 20370 ft 432 kts 118°
2026-05-05 15:54 60.01918 16.00271 20117 ft 430 kts 117°
2026-05-05 15:54 60.00847 16.05832 19738 ft 428 kts 117°
2026-05-05 15:54 59.99777 16.11384 19177 ft 428 kts 118°
2026-05-05 15:55 59.98713 16.16904 18815 ft 423 kts 118°
2026-05-05 15:55 59.97669 16.22326 18295 ft 413 kts 118°
2026-05-05 15:55 59.96644 16.27625 17629 ft 408 kts 117°
2026-05-05 15:55 59.95613 16.32897 17167 ft 407 kts 117°
2026-05-05 15:56 59.94597 16.38078 17005 ft 393 kts 117°
2026-05-05 15:56 59.93634 16.43006 16635 ft 373 kts 117°
2026-05-05 15:56 59.92706 16.47737 16026 ft 361 kts 116°
2026-05-05 15:56 59.91801 16.52329 15396 ft 351 kts 115°
2026-05-05 15:57 59.90913 16.56797 14788 ft 342 kts 114°
2026-05-05 15:57 59.90034 16.61187 14479 ft 337 kts 114°
2026-05-05 15:57 59.89169 16.65500 14114 ft 336 kts 114°
2026-05-05 15:57 59.88314 16.69771 13912 ft 328 kts 113°
2026-05-05 15:58 59.87477 16.73962 13579 ft 325 kts 113°
2026-05-05 15:58 59.86644 16.78129 13193 ft 320 kts 113°
2026-05-05 15:58 59.85829 16.82206 12508 ft 317 kts 113°
2026-05-05 15:58 59.85013 16.86268 12098 ft 316 kts 113°
2026-05-05 15:59 59.84197 16.90316 11698 ft 315 kts 113°
2026-05-05 15:59 59.83381 16.94352 11297 ft 314 kts 113°
2026-05-05 15:59 59.82576 16.98337 10998 ft 309 kts 113°
2026-05-05 15:59 59.81795 17.02329 10568 ft 305 kts 111°
2026-05-05 16:00 59.81080 17.06224 9991 ft 297 kts 110°
2026-05-05 16:00 59.80390 17.10092 9888 ft 299 kts 110°
2026-05-05 16:00 59.79544 17.13836 9621 ft 297 kts 124°
2026-05-05 16:00 59.78253 17.16968 9273 ft 291 kts 140°
2026-05-05 16:01 59.76621 17.19277 8971 ft 286 kts 155°
2026-05-05 16:01 59.74792 17.20751 8666 ft 283 kts 163°
2026-05-05 16:01 59.72942 17.22074 8370 ft 283 kts 162°
2026-05-05 16:01 59.71102 17.23408 8073 ft 281 kts 162°
2026-05-05 16:02 59.69262 17.24746 7763 ft 281 kts 162°
2026-05-05 16:02 59.67435 17.26074 7633 ft 280 kts 162°
2026-05-05 16:02 59.65604 17.27401 7463 ft 280 kts 162°
2026-05-05 16:02 59.63779 17.28720 7301 ft 279 kts 163°
2026-05-05 16:03 59.62013 17.30322 7096 ft 282 kts 146°
2026-05-05 16:03 59.60527 17.32851 6873 ft 282 kts 138°
2026-05-05 16:03 59.59105 17.35535 6554 ft 284 kts 137°
2026-05-05 16:03 59.57681 17.38247 6102 ft 285 kts 137°
2026-05-05 16:04 59.56248 17.40978 5588 ft 287 kts 137°
2026-05-05 16:04 59.54800 17.43710 5089 ft 289 kts 137°
2026-05-05 16:04 59.53377 17.46404 4995 ft 279 kts 137°
2026-05-05 16:04 59.51979 17.49051 4828 ft 278 kts 137°
2026-05-05 16:05 59.50587 17.51671 4595 ft 277 kts 137°
2026-05-05 16:05 59.49194 17.54291 4309 ft 276 kts 137°
2026-05-05 16:05 59.47813 17.56880 4043 ft 272 kts 137°
2026-05-05 16:05 59.46446 17.59466 4017 ft 273 kts 135°
2026-05-05 16:06 59.45277 17.62434 4016 ft 276 kts 124°
2026-05-05 16:06 59.44242 17.65609 4016 ft 277 kts 123°
2026-05-05 16:06 59.43219 17.68801 4000 ft 273 kts 122°
2026-05-05 16:06 59.42561 17.70851 4013 ft 262 kts 123°
2026-05-05 16:07 59.41312 17.74747 4030 ft 240 kts 122°
2026-05-05 16:07 59.40738 17.76542 4021 ft 230 kts 123°
2026-05-05 16:07 59.39897 17.79177 4014 ft 227 kts 122°
2026-05-05 16:07 59.39239 17.81981 4037 ft 227 kts 103°
2026-05-05 16:08 59.39388 17.84960 4035 ft 221 kts 58°
2026-05-05 16:08 59.40477 17.86891 4040 ft 210 kts 16°
2026-05-05 16:08 59.42347 17.87783 4038 ft 209 kts
2026-05-05 16:08 59.43309 17.88124 4013 ft 209 kts
2026-05-05 16:09 59.45184 17.88789 3723 ft 203 kts
2026-05-05 16:09 59.46121 17.89124 3547 ft 201 kts
2026-05-05 16:09 59.47485 17.89613 3282 ft 198 kts
2026-05-05 16:09 59.48817 17.90090 3011 ft 197 kts
2026-05-05 16:10 59.50171 17.90576 2734 ft 193 kts
2026-05-05 16:10 59.51446 17.91037 2467 ft 185 kts
2026-05-05 16:10 59.52681 17.91482 2221 ft 176 kts
2026-05-05 16:10 59.53836 17.91898 1989 ft 165 kts
2026-05-05 16:11 59.54950 17.92299 1752 ft 161 kts
2026-05-05 16:11 59.58189 17.93467 1079 ft 148 kts
2026-05-05 16:12 59.59184 17.93827 862 ft 144 kts
2026-05-05 16:12 59.61148 17.94518 475 ft 143 kts
2026-05-05 16:13 59.63880 17.95502 113 ft 94 kts 11°
2026-05-05 16:13 59.64355 17.95681 111 ft 47 kts 10°
2026-05-05 16:13 59.64564 17.95651 108 ft 22 kts 338°
2026-05-05 16:14 59.64668 17.95555 106 ft 9 kts 317°
2026-05-05 16:14 59.64603 17.95352 104 ft 13 kts 208°
2026-05-05 16:15 59.64479 17.95013 104 ft 18 kts 237°
2026-05-05 16:15 59.64339 17.94571 102 ft 19 kts 237°
2026-05-05 16:16 59.64199 17.94133 105 ft 17 kts 237°
2026-05-05 16:16 59.64089 17.93788 111 ft 12 kts 239°
2026-05-05 16:17 59.64006 17.93521 112 ft 12 kts 238°
2026-05-05 16:17 59.63988 17.93360 111 ft 12 kts 271°
2026-05-05 16:18 59.64052 17.93053 110 ft 12 kts 297°
2026-05-05 16:18 59.64090 17.92911 112 ft 11 kts 298°
2026-05-05 16:18 59.64159 17.92646 113 ft 10 kts 297°
2026-05-05 16:19 59.64189 17.92535 115 ft 8 kts 299°
2026-05-05 16:19 59.64221 17.92416 115 ft 11 kts 297°
2026-05-05 16:19 59.64315 17.92261 114 ft 10 kts 13°
2026-05-05 16:20 59.64376 17.92244 114 ft 13 kts 297°
2026-05-05 16:20 59.64553 17.92150 112 ft 17 kts 11°
2026-05-05 16:21 59.64715 17.92243 112 ft 5 kts 55°
2026-05-05 16:22 59.64727 17.92401 112 ft 1 kts 54°
2026-05-05 16:22 59.64755 17.92452 112 ft 0 kts 43°